YO4ISC-13 Weather Reports


time (UTC)temp
C
wind
direction
speed
KPH
gust
KPH
rain 1hr
cm
rain 24hr
cm
rain mn
cm
humidity
%
barometer
mb
20260504050002 6 348 20.9 22.5 0.00 0.00 0.00 73 1017.0
20260504045001 6 346 16.1 17.7 0.00 0.00 0.00 74 1017.0
20260504044002 6 349 20.9 20.9 0.00 0.00 0.00 75 1017.0
20260504043001 5 339 17.7 19.3 0.00 0.00 0.00 75 1016.0
20260504042002 5 353 14.5 20.9 0.00 0.00 0.00 75 1017.0
20260504041001 5 340 11.3 20.9 0.00 0.00 0.00 75 1016.0
20260504040002 5 334 14.5 19.3 0.00 0.00 0.00 76 1016.0
20260504035001 5 337 12.9 24.1 0.00 0.00 0.00 76 1016.0
20260504034002 5 346 12.9 19.3 0.00 0.00 0.00 76 1016.0
20260504033001 5 1 17.7 20.9 0.00 0.00 0.00 76 1016.0
20260504032002 5 345 11.3 17.7 0.00 0.00 0.00 77 1016.0
20260504031001 4 351 14.5 19.3 0.00 0.00 0.00 77 1016.0
20260504030002 4 345 19.3 22.5 0.00 0.00 0.00 78 1016.0
20260504025001 4 355 16.1 17.7 0.00 0.00 0.00 80 1016.0
20260504024002 3 346 11.3 14.5 0.00 0.00 0.00 80 1016.0
20260504023002 3 350 11.3 19.3 0.00 0.00 0.00 81 1016.0
20260504022001 3 337 6.4 11.3 0.00 0.00 0.00 83 1016.0
20260504021002 3 347 12.9 16.1 0.00 0.00 0.00 82 1016.0
20260504020001 3 351 17.7 17.7 0.00 0.00 0.00 82 1016.0
20260504015002 3 352 14.5 20.9 0.00 0.00 0.00 82 1016.0
20260504014001 3 355 9.7 11.3 0.00 0.00 0.00 81 1017.0
20260504013002 3 350 9.7 14.5 0.00 0.00 0.00 81 1017.0
20260504012001 3 349 9.7 12.9 0.00 0.00 0.00 80 1017.0
20260504011002 3 353 9.7 12.9 0.00 0.00 0.00 79 1017.0
20260504010002 3 0 9.7 12.9 0.00 0.00 0.00 79 1017.0
20260504005001 3 354 17.7 17.7 0.00 0.00 0.00 79 1017.0
20260504004002 4 352 12.9 14.5 0.00 0.00 0.00 78 1017.0
20260504003002 4 350 8.0 11.3 0.00 0.00 0.00 77 1018.0
20260504002002 5 350 16.1 17.7 0.00 0.00 0.00 74 1018.0
20260504001002 5 354 12.9 19.3 0.00 0.00 0.00 72 1018.0
20260504000001 5 339 9.7 17.7 0.00 0.00 0.00 70 1018.0
20260503235002 5 350 12.9 16.1 0.00 0.00 0.00 70 1018.0
20260503234002 5 345 11.3 16.1 0.00 0.00 0.00 71 1018.0
20260503233001 5 354 16.1 20.9 0.00 0.00 0.00 72 1018.0
20260503232002 5 356 9.7 9.7 0.00 0.00 0.00 74 1018.0
20260503231001 5 353 8.0 9.7 0.00 0.00 0.00 73 1018.0
20260503230002 5 3 6.4 9.7 0.00 0.00 0.00 73 1018.0
20260503225001 5 2 9.7 9.7 0.00 0.00 0.00 74 1018.0
20260503224002 5 0 8.0 9.7 0.00 0.00 0.00 74 1018.0
20260503223002 5 354 9.7 9.7 0.00 0.00 0.00 74 1018.0
20260503222001 5 359 6.4 8.0 0.00 0.00 0.00 73 1018.0
20260503221002 5 0 8.0 9.7 0.00 0.00 0.00 72 1018.0
20260503220002 5 0 11.3 12.9 0.00 0.00 0.00 71 1018.0
20260503215001 6 10 11.3 12.9 0.00 0.00 0.00 69 1018.0
20260503214002 6 356 11.3 12.9 0.00 0.00 0.00 68 1019.0
20260503213001 6 353 9.7 12.9 0.00 0.00 0.00 68 1018.0
20260503212002 6 358 9.7 11.3 0.00 0.00 0.00 68 1018.0
20260503211001 6 2 11.3 11.3 0.00 0.00 0.00 68 1018.0
20260503210001 6 355 9.7 11.3 0.00 0.00 0.00 68 1018.0
20260503205002 6 6 8.0 11.3 0.00 0.00 0.00 68 1018.0
20260503204001 6 359 6.4 11.3 0.00 0.00 0.00 68 1018.0
20260503203002 6 0 9.7 14.5 0.00 0.00 0.00 69 1019.0
20260503202001 6 351 9.7 11.3 0.00 0.00 0.00 70 1019.0
20260503201002 6 359 9.7 9.7 0.00 0.00 0.00 70 1019.0
20260503200001 6 354 9.7 9.7 0.00 0.00 0.00 71 1019.0
20260503195002 6 1 9.7 9.7 0.00 0.00 0.00 71 1019.0
20260503194001 6 353 8.0 11.3 0.00 0.00 0.00 70 1019.0
20260503193002 6 0 11.3 11.3 0.00 0.00 0.00 71 1019.0
20260503192002 6 2 6.4 9.7 0.00 0.00 0.00 70 1019.0
20260503191001 6 0 8.0 9.7 0.00 0.00 0.00 69 1020.0
20260503190002 7 4 6.4 9.7 0.00 0.00 0.00 69 1020.0
20260503185001 7 11 8.0 11.3 0.00 0.00 0.00 66 1020.0
20260503184002 7 0 6.4 9.7 0.00 0.00 0.00 66 1020.0
20260503183001 7 11 6.4 8.0 0.00 0.00 0.00 67 1020.0
20260503182002 7 17 8.0 8.0 0.00 0.00 0.00 68 1020.0
20260503181001 7 20 8.0 9.7 0.00 0.00 0.00 68 1020.0
20260503180002 8 20 4.8 8.0 0.00 0.00 0.00 67 1020.0
20260503175002 8 19 8.0 9.7 0.00 0.00 0.00 67 1020.0
20260503174001 8 17 4.8 6.4 0.00 0.00 0.00 66 1020.0
20260503173002 9 28 8.0 9.7 0.00 0.00 0.00 63 1020.0
20260503172001 10 30 8.0 8.0 0.00 0.00 0.00 60 1020.0
20260503171002 10 45 8.0 9.7 0.00 0.00 0.00 59 1020.0
20260503151002 12 86 6.4 8.0 0.00 0.00 0.00 56 1021.0
20260503131001 13 79 20.9 24.1 0.00 0.00 0.00 52 1021.0
20260503081001 12 76 12.9 16.1 0.00 0.00 0.00 64 1023.0
20260503072002 11 59 16.1 27.4 0.00 0.00 0.00 74 1023.0
20260503071001 11 60 17.7 25.7 0.00 0.00 0.00 76 1023.0
20260503055002 9 52 27.4 32.2 0.00 0.00 0.00 81 1022.0
20260503054001 9 56 16.1 24.1 0.00 0.00 0.00 81 1023.0
20260503053002 9 56 9.7 14.5 0.00 0.00 0.00 83 1022.0
20260503052001 10 66 25.7 32.2 0.00 0.00 0.00 81 1022.0